Regional Weather Roundup
Issued by NWS

Home | Current Version | Previous Version | Text Only | Print | Product List | Glossary Off
Versions: 1 2 3 4 5 6 7 8 9 10 11 12 13 14 15 16 17 18 19 20 21 22 23 24 25 26 27 28 29 30 31 32 33 34 35 36 37 38 39 40 41 42 43 44 45 46 47 48 49 50

000
ASUS43 KOAX 080710
RWRNE

WEATHER ROUNDUP FOR NEBRASKA
NATIONAL WEATHER SERVICE OMAHA NE
100 AM CST MON FEB 08 2016

NOTES: SATELLITE DATA IS BEING USED TO AUGMENT CLOUD COVER ABOVE
       12000 FEET.
       "FAIR" INDICATES FEW OR NO CLOUDS BELOW 12,000 FEET WITH NO
       SIGNIFICANT WEATHER AND/OR OBSTRUCTIONS TO VISIBILITY.

  * THESE STATIONS DO NOT REPORT WEATHER SUCH AS RAIN...SNOW OR FOG.

NEZ001>004-019>022-054>056-080800-
NEBRASKA PANHANDLE

CITY           SKY/WX    TMP DP  RH WIND       PRES   REMARKS
SCOTTSBLUFF    CLOUDY    26  13  57 W17       30.38R WCI  13
ALLIANCE       CLEAR     23  11  60 NW23G29   30.29S WCI   7
CHADRON        CLEAR     25  13  60 W18       30.34S WCI  11
KIMBALL        CLOUDY    24  12  59 NW14G23   30.36S WCI  12
SIDNEY         CLEAR     24  11  57 NW23      30.34R WCI   9
$$

NEZ057>060-069>072-079>082-080800-
SOUTHWEST NEBRASKA

CITY           SKY/WX    TMP DP  RH WIND       PRES   REMARKS
NORTH PLATTE   CLEAR     28  13  53 NW21      30.24S WCI  15
IMPERIAL       CLEAR     27  13  55 NW22G32   30.29S WCI  13
LEXINGTON      CLEAR     26  15  64 W15       30.20F WCI  13
MCCOOK         CLEAR     25  15  66 NW15      30.27F WCI  13
OGALLALA       CLEAR     26  13  59 NW23G29   30.29R WCI  11
$$

NEZ005>010-023>029-035>040-094-080800-
NORTH CENTRAL NEBRASKA

CITY           SKY/WX    TMP DP  RH WIND       PRES   REMARKS
VALENTINE      CLEAR     29  16  58 NW28G37   30.20S WCI  14
AINSWORTH      CLEAR     31  17  55 NW30G43   30.15F WCI  16
BROKEN BOW     PTCLDY    31  17  56 NW26G39   30.16S WCI  17
O`NEILL        CLOUDY    32  18  57 NW29G39   30.09F WCI  18
ORD            MOCLDY    33  18  53 NW32G44   30.10F WCI  19
THEDFORD       CLEAR     31  16  54 NW26G40   30.21S WCI  17
$$

NEZ041-046>049-061>064-073>077-083>087-080800-
SOUTH CENTRAL NEBRASKA

CITY           SKY/WX    TMP DP  RH WIND       PRES   REMARKS
GRAND ISLAND   CLEAR     30  17  58 NW18      30.12F WCI  18
AURORA         CLEAR     30  18  62 NW26      30.10S WCI  15
HASTINGS       PTCLDY    30  18  60 NW17      30.12F WCI  18
HEBRON         CLEAR     31  19  62 NW14      30.13S WCI  21
HOLDREGE       CLEAR     29  16  58 NW22      30.18F WCI  15
YORK           MOCLDY    30  19  64 NW21      30.08F WCI  17
$$

NEZ011>018-030>034-042>045-080800-
NORTHEAST NEBRASKA

CITY           SKY/WX    TMP DP  RH WIND       PRES   REMARKS
NORFOLK        CLOUDY    34  19  54 NW33G44   29.99F WCI  20
ALBION         MOCLDY    32  18  56 NW28G35   30.04F WCI  18
BLAIR          CLOUDY    30  23  75 NW17G25   29.98S WCI  18
COLUMBUS *     CLOUDY    30  14  51 W17       30.05F WCI  18
FREMONT        CLOUDY    32  22  66 NW23G31   30.01F WCI  19
TEKAMAH        CLOUDY    30  22  72 NW20      29.99F WCI  17
WAYNE          MOCLDY    30  23  74 N30G38    30.00S WCI  15
$$

NEZ050>053-065>068-078-088>093-080800-
SOUTHEAST NEBRASKA

CITY           SKY/WX    TMP DP  RH WIND       PRES   REMARKS
LINCOLN        CLOUDY    34  20  56 NW16G28   30.06F WCI  24
OMAHA EPPLEY   CLOUDY    31  22  69 NW25G32   29.98F WCI  17
BEATRICE       MOCLDY    33  22  64 NW20      30.07F WCI  21
FALLS CITY     CLOUDY    35  24  64 NW21G30   30.02F WCI  24
NEBRASKA CITY  CLOUDY    32  25  76 N18       30.02S WCI  20
PLATTSMOUTH    CLOUDY    31  24  74 NW22      29.99F WCI  18
$$

NEZ044-045-051>053-067-080800-
OMAHA AREA

CITY           SKY/WX    TMP DP  RH WIND       PRES   REMARKS
OMAHA EPPLEY   CLOUDY    31  22  69 NW25G32   29.98F WCI  17
BLAIR          CLOUDY    30  23  75 NW17G25   29.98S WCI  18
FREMONT        CLOUDY    32  22  66 NW23G31   30.01F WCI  19
MILLARD        CLOUDY    33  23  67 NW15G26   30.00F WCI  22
OFFUTT AFB     CLOUDY    31  22  69 NW16G25   29.99F WCI  20
PLATTSMOUTH    CLOUDY    31  24  74 NW22      29.99F WCI  18
WAHOO          CLOUDY    33  22  64 NW25G32   30.02S WCI  20
$$



USA.gov is the U.S. government's official web portal to all federal, state and local government web resources and services.